Theta_e
341 334 332 330 326 325 322 319 304 309 306 301 299 302 299 308 307 304 304 305 303 307 309 308 308 310 308 308 308 310 312 307 312 304 308 325 337 339 342 342 343 345 346 346 348 350 350 349 350 349 350 350 349 349 349 350 349 349 349 349 350 350 350 349 349 348 348 346 346 346 346 346 347 346 345 343 340 340 339 339 339 339 339 338 338 338 340 340 340 344 345 346 345 343 343 343 342
335 329 329 329 325 323 314 316 307 303 303 299 299 302 301 305 305 303 303 305 308 309 310 309 309 312 312 311 311 309 312 317 318 318 326 330 336 337 340 342 342 343 346 346 348 348 350 351 348 350 349 349 349 349 349 348 349 348 349 349 349 349 349 349 349 348 348 347 346 346 346 346 346 346 345 341 340 339 340 339 338 338 338 338 338 338 342 345 346 345 344 345 343 342 341 340 340
332 327 327 326 323 318 316 313 303 301 300 297 298 302 305 302 303 305 306 309 310 310 310 310 311 310 309 310 307 308 312 320 321 324 322 332 330 333 339 343 344 346 346 347 348 349 349 349 347 350 349 349 349 349 348 348 348 349 348 348 348 348 349 348 348 348 348 347 346 346 345 346 345 345 343 340 340 340 339 339 338 337 338 339 338 339 340 339 341 342 343 343 342 341 340 340 340
329 330 325 324 317 317 311 308 305 301 299 298 299 302 303 303 304 306 309 309 309 311 310 307 307 313 310 307 309 311 310 319 324 324 321 327 332 336 339 341 345 346 348 348 349 349 349 347 346 349 349 349 349 349 349 348 349 348 348 348 348 348 348 347 348 348 347 347 346 345 345 345 344 343 342 340 340 340 339 338 338 338 338 340 340 341 342 343 342 342 341 342 342 341 341 340 340
330 328 324 321 319 311 311 307 303 302 298 299 299 302 303 305 305 307 308 309 308 308 309 309 310 312 314 313 312 307 317 321 324 329 324 334 337 338 339 343 345 345 346 348 348 349 349 344 347 349 349 349 349 349 349 348 348 348 348 348 347 346 347 347 347 346 347 347 345 345 345 345 344 343 341 339 340 339 339 338 338 338 337 339 339 342 344 344 343 343 343 342 342 341 340 340 339
326 325 328 321 315 315 309 303 302 301 301 303 301 302 304 306 305 308 308 309 309 310 309 308 308 310 308 310 317 311 317 312 323 328 332 333 337 338 340 343 343 344 345 348 348 349 350 341 346 347 349 349 349 349 349 347 347 348 348 347 346 346 346 346 346 346 346 346 345 345 345 344 343 343 341 338 339 340 339 338 338 337 337 337 337 339 339 340 341 341 340 340 340 340 339 339 339
324 321 318 318 315 316 306 303 301 301 301 304 303 303 304 305 307 307 307 307 308 307 308 308 309 308 306 313 315 321 325 326 323 327 335 335 338 339 340 341 342 343 346 347 348 348 349 341 347 348 350 349 349 348 348 348 348 348 347 347 346 346 346 345 345 345 345 346 346 344 343 343 343 341 340 338 339 339 339 338 338 337 336 337 336 336 336 337 340 339 339 338 338 339 337 337 337
324 318 316 309 308 308 304 302 302 303 302 305 305 305 305 306 307 306 306 305 304 305 306 308 308 308 306 313 308 322 324 328 331 334 334 335 338 339 341 340 342 343 345 347 348 349 344 340 345 345 346 348 348 348 348 347 347 347 347 347 347 346 346 345 345 345 345 346 345 344 344 343 342 341 338 338 339 339 338 338 337 337 336 336 335 335 335 335 336 336 335 336 336 334 335 335 336
321 316 320 313 305 307 302 302 302 303 303 304 304 306 309 307 307 306 305 307 306 307 307 308 309 304 307 308 311 318 322 328 330 331 334 336 338 340 340 340 342 343 345 346 349 351 349 338 342 343 344 346 348 348 348 348 347 347 347 347 346 346 346 346 345 345 345 345 344 343 343 342 341 340 337 336 338 339 338 337 337 337 337 336 335 335 334 334 334 335 335 334 333 334 334 335 334
316 316 306 308 309 302 302 301 301 303 303 305 305 305 306 307 307 308 306 304 306 306 308 311 309 305 306 305 310 317 320 327 330 332 334 336 337 340 339 342 345 343 345 345 347 349 348 342 336 339 340 344 347 348 347 347 347 347 347 347 346 346 346 345 346 345 345 344 344 343 342 342 341 340 337 335 337 338 338 338 337 337 336 336 336 335 335 333 333 333 333 332 332 333 334 333 333
309 312 317 307 302 301 300 301 301 302 303 305 305 306 307 308 307 305 307 306 307 305 309 308 305 306 306 306 314 321 326 328 326 328 334 335 338 338 339 343 346 345 343 347 347 348 347 347 337 335 339 339 343 346 347 347 347 347 347 347 346 346 346 346 345 345 344 344 344 343 342 342 341 340 337 336 336 336 336 336 337 336 336 336 335 334 331 328 328 330 333 332 332 333 332 332 332
309 307 311 302 302 301 301 301 301 303 304 304 304 306 308 307 307 304 305 303 305 305 306 307 306 309 305 306 312 317 323 325 327 332 334 335 336 338 339 342 345 346 347 346 347 347 347 347 345 339 333 334 339 343 345 347 348 347 347 346 346 346 346 346 345 345 345 344 344 343 342 341 341 340 338 336 335 335 334 334 334 335 335 335 333 330 327 326 326 329 331 332 332 332 331 331 331
312 312 305 302 302 302 303 300 302 302 303 303 304 306 308 306 304 305 305 305 305 304 305 309 312 307 304 305 313 318 318 323 332 332 333 334 335 337 340 341 343 344 346 347 345 345 346 345 345 345 341 330 332 336 339 340 343 347 347 347 346 346 346 346 345 345 345 344 344 343 342 342 341 340 338 337 336 336 335 333 333 334 335 333 331 330 329 328 327 329 330 331 331 330 330 330 330
313 314 309 303 305 303 301 302 302 300 301 304 306 306 307 305 306 306 306 303 304 304 308 311 309 309 305 307 309 312 318 328 331 331 332 334 335 336 337 339 340 341 344 345 343 344 344 344 344 345 346 344 347 337 332 337 341 344 346 345 344 344 345 346 346 345 345 345 344 343 341 341 341 340 338 337 337 336 335 334 333 333 332 331 330 329 328 327 327 328 329 329 330 329 329 329 329
313 314 309 307 303 302 303 300 301 300 301 305 304 305 306 307 306 306 305 303 304 308 309 310 311 306 303 304 306 311 321 330 330 330 332 333 334 335 336 337 338 340 341 342 344 341 341 343 344 345 346 347 347 345 346 342 334 340 342 343 343 343 344 343 344 343 342 343 342 340 338 337 335 335 336 336 336 334 332 331 332 331 331 330 329 328 327 327 327 328 328 329 328 328 328 328 327
319 311 307 303 300 300 302 301 302 301 302 305 304 306 305 306 306 304 306 305 307 310 308 305 310 306 308 307 310 321 327 329 329 330 331 331 333 333 334 335 336 337 339 339 340 342 340 340 342 344 345 345 344 345 345 347 333 332 337 339 340 341 340 340 340 338 336 336 336 335 332 334 331 333 327 332 331 334 331 328 330 330 331 330 329 329 328 327 327 328 328 328 327 327 326 326 325
315 317 303 301 299 300 303 301 302 298 304 304 304 305 303 303 306 306 306 308 304 306 306 309 307 310 307 310 311 320 327 328 327 328 329 328 330 330 332 333 334 334 335 337 338 339 340 339 340 340 342 344 344 345 345 345 345 329 332 332 333 336 336 336 335 329 325 325 329 326 330 339 338 336 335 333 325 332 324 325 329 331 331 330 329 328 328 327 327 327 327 326 324 323 321 321 321
314 304 302 300 302 301 305 302 303 306 303 304 303 305 304 302 304 305 307 305 305 307 305 308 310 309 310 310 311 318 325 324 326 326 326 327 328 327 329 330 331 331 333 334 337 338 338 339 340 339 339 340 343 344 345 345 345 338 344 344 344 338 331 328 334 341 335 339 325 334 340 340 338 336 335 332 332 331 329 323 326 329 329 328 327 327 326 325 325 326 326 325 324 323 321 320 319
307 304 303 301 303 306 307 305 306 304 304 306 305 305 305 304 305 306 303 303 304 303 305 307 307 308 310 310 311 316 322 323 325 325 325 326 326 326 328 329 330 330 329 331 334 335 336 338 339 339 339 340 341 342 343 344 343 343 345 345 344 335 337 337 342 340 342 341 341 341 338 340 338 339 335 333 332 324 328 323 325 327 327 326 326 326 325 325 324 324 323 322 322 323 321 321 321
307 307 301 301 307 305 307 306 305 306 306 305 304 305 305 306 306 308 302 303 305 303 303 305 305 306 308 309 310 314 318 323 324 325 325 326 326 327 328 328 328 330 330 331 331 334 335 336 337 338 338 340 341 341 343 344 345 343 343 343 344 342 341 338 340 339 340 340 340 339 339 339 338 338 329 327 328 331 327 322 323 324 325 324 324 324 324 323 323 323 322 323 323 320 320 319 318
307 302 301 303 304 303 304 306 305 305 306 305 305 305 303 305 306 306 304 302 303 305 307 306 306 307 308 310 310 314 316 320 323 324 325 326 327 328 328 329 329 331 332 332 332 330 332 334 335 337 337 339 340 340 341 341 343 342 343 343 342 341 341 339 340 341 342 342 342 340 338 340 339 337 336 334 333 331 329 326 325 325 324 324 321 322 320 320 320 321 321 321 320 319 318 316 314
306 302 303 304 304 303 304 305 303 304 304 305 305 302 303 307 305 304 305 301 302 305 307 309 309 309 310 310 311 314 314 318 321 322 324 326 327 326 327 330 331 333 333 330 331 331 332 332 334 335 337 337 339 338 339 340 341 341 341 344 343 341 341 341 341 340 341 340 342 339 338 338 338 337 336 335 334 333 329 326 325 324 324 323 322 320 320 322 322 322 321 320 319 317 315 313 312
300 303 304 304 304 304 304 304 302 303 305 304 304 305 306 303 304 306 305 304 306 307 309 310 309 309 312 314 313 313 314 316 318 320 323 325 327 328 327 327 328 329 331 330 330 331 331 331 333 334 335 336 338 339 338 338 339 339 340 342 342 341 341 339 340 341 340 341 343 340 339 338 337 337 336 335 335 333 330 328 326 324 324 322 322 321 322 323 322 320 319 318 318 315 313 311 310
304 302 303 302 304 303 304 303 301 303 303 304 305 305 303 304 301 306 304 307 309 309 309 309 309 308 308 310 313 313 314 316 317 319 322 324 327 328 329 328 328 330 329 329 331 330 330 331 333 333 334 335 336 338 336 335 337 338 339 341 341 339 340 340 340 340 341 340 340 340 339 339 337 336 335 336 334 334 332 331 330 326 325 323 323 323 323 322 321 319 317 316 314 312 311 310 309
303 302 304 302 304 303 303 303 302 302 303 304 304 303 303 305 304 303 304 307 308 309 309 308 309 308 307 309 311 312 313 315 317 319 321 323 325 328 330 330 330 329 327 328 330 331 329 330 331 332 332 332 334 335 335 335 335 337 339 339 340 337 340 341 342 340 340 339 340 339 337 336 336 336 335 335 335 334 336 336 332 329 327 324 324 324 323 321 319 317 316 314 313 310 308 308 308
305 303 304 303 304 303 303 303 303 302 304 304 302 303 305 303 303 302 305 307 309 310 309 309 309 307 307 308 310 311 312 314 317 318 319 322 323 324 326 327 327 327 328 329 330 330 329 330 329 329 331 331 332 332 333 334 334 335 337 338 340 340 339 340 341 342 341 340 339 339 338 337 337 334 335 336 334 332 332 332 330 330 329 328 325 321 320 319 318 316 314 313 311 309 307 307 306
306 304 304 304 303 303 303 303 303 303 304 303 302 303 304 303 303 300 307 309 309 308 307 308 308 307 308 308 309 310 311 312 315 317 320 322 322 323 324 325 324 324 326 328 329 329 330 328 328 328 329 329 330 329 330 332 333 333 335 337 337 335 338 339 339 339 339 339 338 338 338 337 336 336 334 334 333 332 331 329 327 327 327 327 326 321 320 318 317 314 312 309 308 307 306 305 304
305 305 304 304 304 305 304 304 303 304 303 303 304 303 305 304 303 301 306 306 308 307 307 308 307 307 308 309 309 311 311 312 314 317 317 319 319 319 320 321 322 323 323 325 327 329 328 326 326 327 327 326 326 327 328 329 332 332 334 336 334 335 337 337 337 337 335 339 339 338 337 337 335 335 335 334 333 330 329 328 326 325 325 327 326 321 318 318 316 314 312 310 308 306 304 304 303
304 305 301 302 304 303 304 304 304 304 303 304 305 302 301 303 300 306 308 306 306 307 307 308 308 308 309 309 310 310 311 312 313 314 316 318 320 319 318 320 321 321 323 324 324 324 324 323 324 324 324 324 323 324 325 328 330 331 332 334 333 335 335 336 336 336 335 336 337 338 337 336 335 335 334 334 331 331 328 326 325 323 323 323 322 320 317 315 313 310 307 307 305 304 303 302 303
305 304 304 300 301 300 304 305 304 303 304 304 303 294 299 302 305 307 309 307 306 306 306 307 308 309 309 309 310 310 311 312 312 314 315 316 318 318 318 319 320 321 321 322 322 321 321 322 321 321 321 321 321 321 321 324 328 331 331 333 332 332 333 333 334 336 334 334 334 336 337 336 335 335 334 332 331 329 326 323 322 321 321 320 320 318 314 312 309 307 306 305 303 302 301 300 299
301 303 303 300 298 298 303 304 303 302 303 303 304 295 298 303 307 308 307 307 306 306 307 308 308 309 309 310 310 310 310 312 312 313 314 315 316 318 319 319 320 320 320 320 320 320 319 319 320 319 320 320 321 321 320 321 324 328 330 330 331 330 330 330 329 334 333 333 333 333 335 334 334 335 334 330 330 328 324 320 319 318 319 318 317 316 312 310 308 306 304 302 301 300 299 298 297
303 297 295 300 297 300 301 303 303 300 301 304 302 296 298 302 305 304 306 305 305 305 306 308 308 309 309 309 309 310 310 312 312 313 313 314 315 316 318 318 320 319 319 320 320 320 318 319 319 319 320 321 323 322 322 322 325 328 328 325 329 329 328 328 327 327 332 333 332 332 332 332 329 329 331 330 326 322 319 317 315 315 317 316 315 314 312 309 308 306 304 302 299 298 297 296 297
301 298 299 298 298 298 299 300 303 301 302 302 301 297 301 302 305 305 304 305 304 304 306 307 308 308 309 309 309 309 310 310 312 312 312 314 315 316 316 317 319 319 320 320 319 319 318 319 318 318 320 320 322 322 323 325 326 326 326 326 327 327 327 327 325 324 325 328 331 331 330 330 329 324 323 323 323 320 318 315 313 314 315 315 314 313 311 309 307 304 302 301 300 297 297 296 296
297 299 296 300 297 297 296 299 302 303 301 299 301 298 299 303 305 306 304 305 305 304 306 307 308 309 309 310 309 309 309 310 310 311 312 313 314 314 315 314 317 318 319 319 320 318 318 318 318 318 320 320 321 321 322 323 323 324 325 323 320 324 326 326 324 323 321 321 323 329 329 328 328 323 320 319 318 317 315 313 312 313 313 314 313 311 308 308 306 302 300 300 298 297 296 295 294
296 298 295 296 298 297 297 297 299 301 300 299 300 299 300 302 304 305 306 307 305 305 306 306 307 307 308 309 309 310 310 310 310 312 313 312 313 314 314 314 316 317 317 318 319 319 319 318 318 317 319 320 319 319 319 321 321 321 323 321 318 316 316 318 321 319 319 316 317 320 321 322 323 323 319 316 315 312 312 312 312 312 313 312 311 307 306 305 304 302 300 298 299 298 297 296 295
297 298 297 297 296 297 296 297 299 300 299 298 299 297 299 301 303 305 306 308 307 306 307 307 307 307 307 307 308 309 310 310 313 314 315 314 313 314 313 313 314 316 316 316 317 318 317 317 318 318 318 319 319 317 316 317 316 316 316 316 314 312 313 312 314 316 315 314 313 314 316 316 316 318 317 314 311 309 309 310 310 311 312 311 309 307 305 303 302 300 299 298 297 297 297 295 295
297 298 297 296 296 297 300 299 300 300 298 298 299 299 299 300 302 304 305 306 306 305 305 306 306 307 307 307 308 309 310 310 318 317 316 314 314 313 313 313 313 314 315 315 315 316 316 316 316 316 317 318 317 314 313 314 314 314 316 315 313 312 312 311 312 311 312 312 311 312 312 313 313 313 313 313 310 308 308 308 308 308 310 310 308 306 305 303 303 301 299 298 296 295 294 295 294
298 297 297 296 299 295 299 299 299 300 297 297 299 299 299 301 302 303 305 304 303 304 305 305 306 307 307 308 308 309 310 314 320 315 313 313 312 313 312 312 312 312 313 314 314 315 315 316 316 316 316 316 316 314 314 314 316 317 315 316 318 314 310 309 308 308 307 309 309 309 310 311 311 310 309 309 309 308 307 307 308 308 308 309 309 306 304 303 302 300 299 297 298 295 293 294 294
298 296 298 297 296 300 300 299 298 299 297 296 299 297 298 300 301 303 303 304 305 306 306 306 306 307 308 308 308 309 310 312 315 313 313 311 312 311 311 311 311 312 313 313 314 315 315 315 315 315 315 315 315 315 314 314 316 317 317 317 318 312 311 311 310 307 305 305 305 307 307 308 309 308 308 307 307 307 307 307 307 307 308 308 307 305 304 302 301 300 299 297 296 297 295 295 294
298 297 295 293 301 294 293 296 298 298 297 295 297 296 297 300 302 303 305 304 305 307 307 308 308 307 308 308 309 310 310 311 311 313 312 310 311 310 309 309 310 311 312 313 313 313 314 314 315 315 314 314 314 314 314 316 316 311 312 316 312 311 306 302 303 303 302 301 301 302 302 304 305 306 306 307 307 307 308 308 309 308 308 308 307 304 302 301 300 300 301 300 298 294 293 293 296
300 299 298 296 297 297 296 296 298 299 299 299 297 296 297 300 300 302 306 307 307 307 308 308 309 310 310 312 312 311 310 310 311 312 313 309 309 309 308 309 310 310 312 312 313 313 313 314 314 315 314 312 314 314 314 315 309 306 304 305 305 303 304 304 301 300 300 300 299 299 301 302 303 303 304 305 307 307 308 308 308 309 308 307 306 304 302 301 301 301 302 299 298 296 293 293 295
297 301 299 298 298 297 298 299 297 295 294 297 299 290 292 299 301 302 303 304 304 307 306 306 307 308 309 308 309 311 313 313 311 311 312 311 309 309 309 309 309 310 311 313 314 313 314 314 314 314 313 312 313 313 314 310 309 305 303 303 303 303 302 301 301 300 298 298 300 300 299 299 301 302 302 303 304 306 307 307 308 308 308 307 306 305 304 303 302 303 302 300 299 299 296 294 295
294 296 302 300 298 299 298 296 296 290 289 297 298 289 286 296 296 298 300 301 301 304 305 306 307 308 309 310 311 311 312 312 313 312 312 311 310 309 308 308 309 309 311 314 314 313 314 314 314 314 313 312 312 312 311 308 308 307 305 306 307 306 304 303 305 304 302 302 301 298 298 296 298 299 300 302 304 305 307 307 308 308 309 309 307 307 306 305 304 304 302 301 300 299 298 295 295
293 298 301 299 299 298 298 297 297 294 299 300 297 296 289 289 295 300 301 300 300 302 303 305 306 307 308 310 311 312 312 312 312 312 311 311 311 309 308 308 309 309 312 313 313 313 313 313 313 313 312 311 312 312 308 308 308 306 306 307 308 307 308 306 305 304 303 301 298 297 296 296 296 297 298 299 301 304 305 306 308 308 308 309 307 307 307 306 305 305 302 302 301 299 299 297 296
297 298 302 300 298 299 299 298 295 296 294 290 295 297 290 289 296 300 301 298 300 301 302 304 305 308 309 311 311 311 311 312 311 312 311 310 310 309 309 308 309 310 311 312 312 313 313 313 312 312 311 310 311 309 307 307 307 307 307 308 307 309 311 308 306 304 301 298 298 295 294 294 294 295 296 297 299 301 302 305 306 307 307 307 306 308 307 306 305 303 301 301 301 300 300 300 298
297 300 301 300 301 300 299 296 295 294 291 287 293 296 288 288 295 297 300 299 298 299 302 303 305 310 310 311 311 311 310 309 310 309 309 310 310 309 309 309 309 309 311 313 313 313 312 312 311 311 310 310 310 308 306 306 306 306 307 308 307 308 307 306 304 300 298 297 297 294 293 293 294 294 294 296 297 299 300 302 304 305 307 307 305 307 306 306 305 303 302 303 303 302 301 302 300
301 302 301 299 299 298 297 297 294 291 286 289 296 295 292 285 293 297 296 297 299 300 302 303 309 309 309 312 312 313 309 309 309 308 307 307 307 307 307 307 308 309 311 312 312 312 312 311 310 309 309 309 309 307 306 305 306 306 307 308 309 308 304 302 300 297 298 296 296 293 293 293 292 292 294 294 295 297 298 300 302 303 306 305 305 305 304 304 304 303 303 303 302 302 301 301 301
303 299 296 296 294 295 294 292 293 286 284 292 294 295 294 285 290 299 301 301 301 301 300 302 304 307 309 314 310 308 308 308 308 307 305 305 304 305 305 305 306 308 310 310 311 311 311 311 310 309 308 309 308 307 306 305 304 305 307 309 309 308 305 303 301 298 298 296 296 294 293 292 292 293 292 293 293 296 297 298 300 301 302 302 302 303 304 303 302 302 300 300 300 300 300 299 298
301 297 295 289 286 288 284 288 284 285 284 289 291 294 291 290 293 298 300 300 302 303 304 304 306 305 307 309 313 310 309 308 308 308 307 305 305 304 303 304 306 307 308 309 309 310 310 310 309 308 307 308 307 305 305 305 304 304 306 307 308 306 304 302 302 300 298 297 296 295 293 292 292 292 291 292 293 295 296 296 297 298 299 300 301 301 301 300 300 299 299 298 298 297 297 298 296
296 293 292 287 283 283 281 285 287 287 289 289 291 294 288 293 296 300 299 302 303 303 305 306 307 306 307 308 312 311 311 308 308 308 308 308 307 306 305 304 305 306 308 308 309 309 309 309 309 308 307 307 307 305 304 304 304 304 305 306 306 306 303 302 301 302 299 299 297 297 295 294 293 293 292 293 294 294 295 296 297 298 298 298 298 298 298 298 298 297 297 296 296 296 296 297 297
295 299 295 290 288 284 281 284 281 283 286 287 291 287 286 287 292 299 302 304 306 307 306 308 309 309 309 310 310 309 310 310 309 308 309 309 308 307 306 305 305 306 307 308 308 308 309 308 308 307 306 307 306 305 303 303 303 304 305 306 306 303 302 301 301 301 299 298 297 296 296 295 295 294 294 294 295 294 294 295 296 296 296 296 296 296 296 296 297 296 296 295 293 294 295 294 293
297 299 300 293 289 293 285 287 286 286 286 285 285 286 292 293 300 302 304 303 303 304 304 305 305 306 308 308 309 309 310 309 308 308 308 309 308 307 306 305 305 306 307 308 308 308 308 307 307 307 306 306 306 305 303 303 303 303 303 303 303 303 301 300 300 300 299 300 299 301 299 297 296 296 295 295 294 294 294 294 294 295 295 295 295 295 295 295 295 294 292 292 291 293 292 292 291
295 296 291 294 299 295 289 286 288 285 284 282 290 289 293 298 298 299 300 300 300 302 304 304 305 307 308 309 310 311 311 309 309 310 309 308 307 307 306 305 305 306 306 307 307 308 308 307 306 306 306 306 306 305 302 302 302 302 302 301 301 301 300 300 301 299 299 299 299 299 298 298 298 298 296 295 293 293 293 293 293 293 293 293 293 293 293 293 293 292 291 290 290 291 291 290 290
297 289 294 300 303 299 291 284 287 284 281 283 289 286 288 289 286 299 299 298 299 301 301 302 304 305 306 309 311 314 312 309 309 311 311 309 308 306 305 306 306 306 306 307 307 308 308 308 307 306 306 305 306 303 302 302 301 301 301 300 301 301 300 299 300 300 300 299 300 299 297 297 296 296 295 294 293 292 292 291 292 292 292 292 292 292 292 292 292 291 290 290 290 290 289 289 289
298 295 303 292 286 285 290 287 280 280 280 283 287 289 289 290 290 295 296 296 299 300 302 302 302 303 305 307 309 312 312 309 308 308 309 308 307 306 304 304 305 306 306 307 308 308 308 307 307 306 306 306 306 303 302 302 302 300 300 300 300 299 297 297 299 298 297 297 296 296 295 296 294 293 292 292 292 291 290 291 291 290 290 290 291 291 291 291 291 290 289 289 289 289 288 287 287
300 301 297 301 295 290 287 287 287 286 281 282 283 287 285 294 294 296 296 298 299 300 300 301 303 304 305 307 311 314 313 310 309 308 308 308 306 305 304 303 303 304 305 306 307 307 307 307 306 306 306 306 305 302 302 301 301 300 299 299 298 298 297 296 296 295 294 294 294 293 293 292 292 291 290 291 290 290 290 290 290 290 289 289 289 289 289 290 289 289 288 287 288 288 286 285 285
291 291 291 294 292 297 293 294 288 286 283 283 282 282 287 294 299 298 298 299 301 301 301 303 304 306 307 309 313 314 311 311 311 310 309 307 305 303 303 303 303 304 305 306 306 306 306 307 306 306 305 305 305 302 302 301 300 299 299 298 297 298 296 295 296 294 293 292 292 292 291 291 289 289 289 289 289 289 289 289 289 289 288 288 288 288 289 288 288 287 286 286 286 285 284 283 284
294 292 290 292 290 287 284 283 294 288 286 283 283 281 289 296 300 300 299 301 302 303 303 303 305 305 308 312 314 310 310 310 310 309 306 305 303 302 302 302 302 303 303 304 305 305 306 306 306 306 305 305 305 303 301 301 300 300 298 298 297 296 298 295 294 292 291 291 290 290 290 289 288 288 289 289 289 289 289 289 289 288 288 288 288 287 287 287 286 285 284 285 284 284 283 283 282
Wind_Speed
8 4 3 4 4 4 4 5 5 4 6 2 4 3 6 3 2 5 5 5 5 4 4 2 3 2 3 5 8 6 6 7 6 6 4 2 4 6 6 7 7 6 8 7 8 9 9 5 3 8 8 10 9 9 9 9 9 10 10 11 12 12 12 12 12 12 12 12 12 13 14 14 16 16 16 16 16 16 15 14 14 15 15 16 15 15 15 15 16 17 18 19 19 19 20 20 19
6 4 3 3 4 3 3 1 4 3 3 5 4 2 6 6 4 4 5 4 7 5 3 2 1 2 3 5 5 5 4 8 8 6 6 7 7 4 7 6 8 8 7 7 8 8 9 9 5 8 9 9 10 9 10 9 9 10 10 10 11 12 12 12 12 12 12 12 13 13 14 15 16 16 16 16 16 15 15 14 14 14 15 16 16 16 17 18 18 18 19 20 19 19 19 19 18
6 5 3 4 5 6 2 4 4 1 2 4 5 5 4 5 3 5 7 8 8 7 4 4 2 2 5 3 5 3 5 3 7 9 7 9 8 7 8 8 8 8 8 6 7 7 7 9 6 8 9 9 9 9 10 10 10 10 10 10 11 11 11 12 12 12 12 12 13 13 14 15 16 16 15 15 16 15 15 14 14 14 16 16 16 16 16 15 17 17 18 19 19 18 19 18 18
6 5 4 3 4 4 5 3 4 3 2 3 6 5 4 3 6 8 8 8 7 5 4 4 3 2 3 6 4 3 2 5 6 8 6 9 3 10 8 8 8 6 7 5 7 7 7 9 6 7 8 9 9 9 10 10 9 9 9 10 10 10 11 11 11 11 12 12 12 14 14 15 15 15 16 15 15 15 14 14 14 14 16 17 16 17 17 17 17 17 18 19 19 19 19 18 18
5 3 3 4 6 4 3 2 3 4 4 3 5 5 4 3 7 7 8 8 6 4 1 3 2 3 2 5 3 4 6 7 5 3 7 6 6 7 8 7 8 8 8 7 8 8 8 9 6 5 8 8 9 9 10 10 10 9 9 9 9 10 11 10 11 11 12 12 13 13 14 14 14 15 15 15 15 15 15 14 15 15 15 16 16 18 19 19 19 19 19 19 19 19 19 18 18
6 5 4 5 3 3 3 4 4 2 6 4 3 6 5 5 7 9 9 7 6 3 3 3 4 3 4 3 2 2 3 1 7 5 5 6 7 5 7 8 9 8 9 7 7 8 8 8 6 3 8 8 9 9 9 9 10 10 9 9 9 9 10 10 11 11 12 12 13 13 14 14 14 15 15 15 15 15 16 15 15 15 14 14 16 15 15 16 18 18 18 19 19 19 19 18 18
3 4 3 5 2 2 5 1 3 3 5 4 5 5 5 6 8 10 9 7 4 3 2 1 1 3 5 5 3 3 5 3 6 5 2 8 6 6 7 8 9 9 9 7 7 8 10 8 6 3 4 5 8 8 8 9 9 10 10 9 9 9 10 10 10 11 12 12 13 13 13 14 14 14 14 15 15 15 15 16 15 15 15 14 15 16 16 16 17 17 17 18 19 18 18 18 18
3 4 2 6 3 4 1 1 2 4 4 4 2 5 6 7 8 8 9 6 8 5 7 3 4 6 4 2 1 5 5 5 7 8 9 7 7 6 8 9 8 9 9 8 7 7 10 8 6 5 3 6 8 7 8 8 10 10 10 10 10 9 9 10 11 11 11 12 13 13 13 13 13 14 14 14 14 15 15 15 16 15 15 15 16 16 16 17 17 17 17 18 18 18 17 17 17
4 6 1 4 4 1 2 0 4 3 5 3 5 5 5 6 6 7 7 3 6 2 5 6 3 6 5 5 3 6 5 6 6 7 6 7 7 7 5 8 9 9 9 8 7 7 8 7 6 6 5 1 6 7 8 9 9 10 10 10 10 10 10 9 10 11 11 12 13 13 14 13 13 14 14 14 14 14 14 15 15 15 15 16 16 17 16 16 16 17 17 17 17 17 17 16 16
4 4 5 5 1 4 2 3 3 4 4 4 4 7 6 5 6 3 7 5 3 4 4 3 1 5 2 4 6 6 6 7 8 7 5 6 6 7 7 8 8 9 9 9 8 7 7 7 6 6 4 5 2 5 8 9 9 9 10 10 11 10 10 10 10 11 10 11 12 13 13 13 13 13 14 14 14 15 15 15 15 15 16 16 16 16 16 15 16 16 16 17 17 17 17 16 16
5 4 4 5 4 2 3 4 2 5 4 5 4 5 6 5 6 5 4 3 5 3 5 3 5 7 4 2 3 5 9 8 8 8 7 6 6 6 8 6 2 6 9 8 8 8 7 7 6 5 4 2 3 2 4 7 10 9 10 10 10 10 10 10 10 10 10 11 12 13 13 13 13 13 14 14 14 14 15 15 15 15 16 16 16 16 15 16 16 17 17 17 17 17 16 16 16
4 5 4 6 4 3 1 2 2 4 4 4 6 8 5 8 6 6 6 5 6 5 4 7 1 2 5 4 4 6 8 8 6 8 8 7 6 5 6 5 4 4 5 7 6 8 8 8 6 6 3 2 1 2 3 4 5 9 9 9 10 10 10 10 10 10 11 11 12 12 12 13 13 13 13 14 14 14 15 15 15 15 16 16 16 16 16 16 17 17 17 17 17 17 17 17 16
6 5 7 6 1 3 5 3 3 2 3 6 7 6 7 8 8 6 6 5 3 5 7 9 3 3 4 2 5 8 8 9 7 9 7 6 6 5 4 5 3 2 5 7 6 6 6 7 8 7 5 4 3 3 4 3 2 4 7 7 8 7 9 9 10 10 10 11 12 12 12 11 12 13 13 13 14 14 15 15 15 16 16 16 16 17 17 17 17 17 17 17 17 17 17 17 16
4 3 4 5 2 3 3 1 2 3 3 7 6 9 9 6 7 4 3 7 6 6 5 5 3 2 7 2 6 6 7 10 10 9 6 7 6 6 4 4 3 3 3 7 6 6 5 6 7 8 7 6 7 5 4 4 4 3 5 7 7 7 7 8 8 8 10 9 10 10 9 10 11 12 12 13 14 14 14 13 15 16 16 17 17 17 17 17 17 18 17 17 17 17 17 17 16
3 1 4 2 2 3 1 4 2 3 2 10 7 10 9 3 1 3 5 7 4 8 5 1 1 2 2 6 6 6 11 12 10 9 8 7 6 6 5 5 4 4 4 5 7 7 5 5 6 7 7 7 7 7 7 5 3 4 5 7 8 8 8 8 9 8 7 9 10 10 10 10 10 11 11 11 11 11 12 13 14 15 17 17 17 17 17 17 18 18 18 18 18 17 17 17 16
3 3 4 5 5 5 5 5 1 3 3 8 8 8 9 5 3 5 2 4 3 2 1 4 4 4 4 4 7 9 12 11 10 9 9 8 7 5 5 5 5 4 5 5 6 8 6 5 5 5 7 9 7 7 7 7 4 5 6 6 8 6 6 2 7 9 9 10 10 11 11 10 10 10 12 10 11 10 11 12 13 15 17 17 17 17 17 17 17 18 18 18 18 17 17 16 16
2 3 5 5 6 6 5 5 5 3 7 8 8 10 9 7 6 1 3 2 6 4 6 3 5 2 2 5 7 8 10 10 9 9 9 9 8 6 5 4 5 5 5 6 6 6 7 7 7 5 6 7 8 7 7 6 5 7 6 6 7 9 7 6 6 11 10 10 9 10 11 10 10 9 10 10 10 10 10 11 13 14 17 17 17 17 17 17 17 17 18 19 19 18 16 16 14
2 6 6 6 3 6 6 5 5 5 1 8 10 10 8 7 6 5 3 5 8 3 5 5 4 4 1 8 6 8 9 9 10 11 10 9 8 8 8 6 9 9 7 7 9 9 9 8 9 7 6 6 6 5 5 6 6 7 9 7 7 7 7 7 7 8 8 7 8 9 8 5 8 8 9 10 10 10 9 11 12 15 17 16 17 18 18 19 19 18 18 17 16 12 11 8 9
6 5 5 5 5 4 1 1 2 2 1 6 8 8 8 3 10 7 7 8 10 10 9 8 9 8 8 9 9 10 11 10 11 11 12 12 10 12 11 10 11 10 10 10 9 10 9 10 9 10 8 7 7 7 5 6 7 8 8 7 7 8 8 8 7 8 8 9 9 9 7 7 7 5 7 8 9 11 11 12 11 13 15 15 17 18 19 19 18 17 15 13 11 8 7 6 6
1 4 5 4 5 5 4 2 4 6 3 4 7 7 7 3 3 7 8 8 8 11 8 10 10 10 13 11 11 11 11 11 11 12 12 12 11 11 11 12 12 12 11 10 10 9 10 9 9 10 9 9 8 6 7 6 6 7 7 5 5 7 8 6 6 8 8 9 9 7 6 7 8 5 8 14 11 10 8 11 13 12 13 14 16 13 16 16 18 16 11 8 7 6 6 6 6
3 5 4 3 2 3 3 3 5 6 5 2 5 5 7 4 4 5 5 9 10 9 10 9 9 10 12 15 13 12 12 12 12 12 12 13 12 9 10 11 11 11 9 8 8 10 12 12 10 10 9 9 10 8 8 7 6 7 6 5 6 7 7 8 7 8 8 9 9 5 0 3 6 7 8 9 8 9 10 9 9 9 9 10 11 10 9 9 9 7 6 6 6 6 7 7 6
3 2 5 2 1 1 4 3 4 4 3 1 5 5 6 5 2 7 8 9 7 4 7 12 10 1 1 15 13 11 12 13 13 13 14 15 15 13 10 9 9 10 9 9 10 10 12 10 10 9 10 10 9 9 8 6 6 6 7 6 7 7 6 6 8 7 6 8 8 5 7 7 5 7 9 9 9 9 9 9 8 8 9 9 8 9 9 8 7 7 7 6 6 5 6 6 6
4 3 2 4 4 2 2 2 3 3 1 2 3 1 4 4 5 8 11 13 7 6 7 8 8 6 5 8 12 12 13 14 14 15 15 15 14 14 12 10 9 10 9 9 9 8 10 10 10 10 9 8 10 9 8 7 6 6 7 9 8 8 8 8 6 7 9 8 7 6 6 6 7 8 8 9 8 9 9 8 8 8 8 8 8 8 8 7 7 7 7 7 6 5 6 6 6
6 2 5 4 4 4 2 3 2 1 1 0 4 3 5 4 10 2 9 14 14 3 5 6 5 4 3 6 11 12 13 14 15 15 15 15 14 14 12 11 10 8 7 10 9 8 9 12 11 10 9 10 9 9 8 8 7 7 7 5 8 8 7 8 8 7 7 9 7 5 6 5 7 7 7 7 9 8 9 9 7 7 7 7 7 7 7 6 6 6 7 8 7 5 5 6 6
5 4 4 4 2 4 3 3 3 2 0 3 2 4 6 5 4 4 12 14 11 10 5 4 2 2 3 6 9 10 11 12 12 12 11 10 11 12 12 9 9 9 10 11 9 9 9 10 11 11 11 12 10 10 10 9 7 7 6 6 7 6 8 8 7 8 8 7 8 10 8 6 7 7 9 8 8 8 6 6 6 5 5 6 6 6 6 7 7 6 7 8 7 6 5 6 6
2 6 6 5 4 5 4 5 4 2 2 0 3 5 2 0 3 11 17 14 9 4 5 5 5 6 7 8 9 9 10 12 11 11 13 10 10 13 13 11 10 11 10 11 10 9 9 11 11 11 11 9 9 10 10 10 8 8 8 6 5 4 7 6 8 6 5 7 8 8 9 7 6 7 8 7 8 7 6 7 6 4 3 2 4 6 6 7 7 6 6 7 7 6 6 6 6
3 7 5 5 5 5 2 3 5 2 1 3 4 5 4 4 3 8 8 5 6 5 8 7 7 10 10 9 9 10 10 11 12 10 9 10 10 11 12 11 11 11 10 11 10 9 9 10 10 10 10 8 7 8 7 10 10 10 8 6 5 4 5 5 7 6 5 5 7 9 9 9 8 7 7 9 8 7 6 7 6 5 5 4 2 4 6 7 7 7 6 6 6 6 6 6 6
4 6 6 6 5 3 5 4 5 4 3 3 4 7 5 3 3 14 6 2 2 7 9 9 9 10 9 10 9 9 9 9 8 9 13 13 11 11 13 11 13 11 11 11 10 9 9 10 9 9 9 7 7 7 7 8 11 11 8 7 6 5 4 3 7 8 6 6 7 7 8 9 9 7 8 8 7 8 8 7 7 7 6 4 4 4 6 6 7 7 6 5 6 6 6 6 6
5 5 6 6 5 5 7 5 4 3 1 1 1 7 11 10 11 19 9 6 5 5 6 8 8 8 9 9 9 8 8 8 8 9 12 11 10 9 12 12 11 11 8 10 10 9 10 9 9 9 9 8 9 9 8 8 9 10 10 8 6 5 5 5 5 8 7 6 4 7 7 10 9 7 7 8 8 8 8 8 7 7 7 6 7 5 7 7 8 8 7 5 6 5 5 7 6
4 4 3 6 6 7 9 5 3 3 3 3 1 6 7 14 21 17 6 6 5 7 9 10 9 9 8 9 8 8 8 8 10 10 9 10 10 10 11 11 12 10 8 8 10 11 9 6 6 6 8 9 9 8 8 8 9 9 8 7 7 6 6 6 5 5 7 6 5 5 7 9 10 8 8 8 9 9 8 7 7 7 6 7 8 8 7 6 7 7 8 7 6 6 6 7 7
5 3 3 4 5 4 7 6 6 6 5 5 1 7 9 6 4 4 6 4 6 10 11 10 10 9 8 8 8 8 10 10 11 11 11 10 9 8 10 10 11 11 9 10 12 11 11 8 7 6 8 9 9 9 9 9 9 10 10 9 6 5 6 6 2 4 7 6 6 7 7 6 6 7 9 9 9 9 9 7 6 7 7 7 8 8 8 6 7 8 7 8 6 6 6 7 7
3 5 6 4 5 5 6 4 6 9 4 5 5 8 11 14 1 5 3 3 5 9 10 11 10 9 8 7 8 9 9 10 11 12 11 11 11 9 9 11 11 12 11 10 10 11 12 11 9 8 9 10 9 9 9 10 10 8 8 8 4 5 8 6 4 2 5 8 7 7 9 8 4 3 5 9 8 7 7 7 6 6 9 8 7 8 8 8 8 6 6 8 9 7 7 7 7
4 6 2 5 5 4 6 4 2 2 5 6 11 7 4 2 4 2 2 3 6 8 11 11 10 10 9 8 7 8 8 9 10 11 12 11 10 10 9 11 11 12 11 11 11 11 11 11 10 10 10 10 10 9 10 10 8 8 8 4 6 7 8 8 7 4 0 3 8 8 8 9 7 5 4 5 6 6 7 7 7 8 9 9 8 7 7 7 8 6 6 6 7 8 8 9 8
6 5 5 2 6 4 4 5 3 3 4 6 10 10 13 11 7 3 7 7 6 7 8 9 8 7 7 7 8 8 9 9 11 11 12 12 10 13 10 10 11 12 12 12 12 12 12 11 10 10 9 9 8 8 7 7 8 8 6 6 2 7 7 8 6 7 4 2 3 7 9 8 9 7 6 6 5 6 7 7 8 9 9 9 8 7 6 7 7 6 8 6 6 7 8 9 9
6 6 6 5 6 7 4 2 5 4 4 8 8 13 16 14 15 16 12 9 11 12 13 13 14 13 13 12 10 12 11 10 11 10 11 13 12 12 10 11 11 11 10 13 12 11 10 10 9 10 10 10 9 8 8 9 8 7 7 9 6 3 2 2 5 5 4 2 2 2 5 5 7 9 8 8 8 7 8 8 8 7 8 8 8 6 9 8 8 6 9 8 6 5 8 8 9
3 2 4 3 3 5 7 3 4 1 5 7 10 12 14 13 14 13 13 15 16 15 14 13 12 12 12 13 14 13 11 13 10 8 8 10 10 11 10 10 11 11 11 12 13 11 11 10 10 9 10 10 9 8 8 9 8 9 10 7 5 4 3 3 2 4 4 3 3 2 5 5 4 6 7 8 8 8 8 8 9 7 7 8 9 6 6 7 10 9 9 10 9 7 7 8 9
3 2 3 3 4 4 5 5 4 2 4 11 12 14 17 16 13 13 14 15 16 17 16 14 13 12 12 13 14 15 14 14 4 8 9 10 10 10 10 10 10 11 12 12 13 13 12 11 11 11 10 10 9 10 10 11 10 7 10 9 7 6 5 4 4 3 4 4 4 3 3 4 5 6 7 8 7 9 7 7 8 8 7 8 9 10 8 7 9 10 9 7 11 10 8 8 9
4 2 3 5 3 5 3 3 3 2 3 6 8 11 17 18 14 14 14 15 18 17 17 17 16 14 13 15 16 15 14 7 7 7 9 9 9 10 10 9 11 13 13 14 14 14 13 12 12 11 10 10 10 10 10 10 11 11 10 9 9 7 6 5 4 3 3 3 4 3 3 4 6 6 7 7 9 9 9 7 8 9 7 7 8 8 9 10 10 9 9 8 5 10 9 9 9
3 5 3 3 5 3 5 4 2 2 2 8 9 11 15 19 17 15 15 16 17 17 16 15 14 14 13 14 15 14 11 11 9 11 10 10 11 11 10 9 10 12 12 13 13 13 13 12 11 11 10 10 10 10 11 11 11 11 9 8 10 6 4 3 4 4 3 2 3 2 3 3 7 7 7 8 7 6 7 8 8 7 8 9 9 8 8 9 9 11 11 10 8 6 8 8 10
4 5 5 5 3 1 3 4 0 4 3 7 11 12 14 19 18 19 18 17 17 17 16 15 13 14 16 17 13 10 12 12 12 11 11 12 12 11 10 10 11 11 11 12 13 14 12 12 11 12 11 11 10 11 11 12 12 3 1 5 5 4 5 4 5 4 3 2 3 1 1 3 5 6 7 7 6 8 10 9 9 8 8 8 9 10 9 8 10 9 9 9 10 10 8 9 9
7 6 5 6 3 3 4 3 4 5 9 6 10 11 12 12 14 10 7 9 11 11 11 12 12 12 14 11 11 13 16 13 11 10 9 11 11 12 12 10 10 10 11 12 12 13 10 13 13 13 11 11 10 11 12 10 7 6 4 5 5 6 5 5 4 3 4 3 2 2 3 3 6 6 6 4 5 6 8 9 9 9 9 8 7 8 10 11 11 11 11 10 11 11 10 8 9
5 8 9 7 6 8 2 4 7 5 6 5 4 7 6 3 7 8 6 3 8 9 10 12 12 11 11 13 14 12 12 11 12 11 9 9 10 10 10 11 11 11 11 11 12 12 11 11 12 12 9 10 11 12 13 8 9 7 7 7 7 6 6 7 8 9 7 6 7 4 3 2 3 6 5 6 5 4 8 8 8 9 10 9 9 8 10 9 10 10 10 9 10 8 10 11 8
6 1 2 8 8 4 4 6 4 4 4 3 3 4 10 4 13 13 11 12 15 13 11 12 12 9 10 11 8 8 9 8 8 8 8 7 9 9 10 11 12 11 11 10 10 12 12 11 12 12 10 10 10 12 11 7 8 8 8 8 7 7 6 5 4 5 6 6 5 6 4 3 2 4 6 7 7 6 7 9 9 8 9 10 10 9 9 10 10 10 8 8 9 8 9 9 9
6 3 1 2 0 3 4 3 4 8 6 7 8 7 11 11 11 13 14 16 16 14 12 11 11 11 10 9 7 6 6 5 4 5 8 10 8 10 11 11 11 11 10 10 10 11 13 12 12 13 10 9 10 11 10 9 8 8 9 8 7 7 7 7 7 6 5 5 6 6 4 4 3 3 3 5 4 5 6 7 9 8 8 9 9 9 10 9 7 7 8 8 7 7 8 8 8
2 2 3 4 2 1 0 2 4 3 6 8 6 5 5 9 3 12 13 13 12 12 11 12 12 8 7 6 4 3 2 1 3 4 5 7 8 8 8 9 9 10 10 10 10 10 10 11 11 12 10 10 10 10 10 9 8 9 9 8 7 7 7 6 7 6 6 6 6 4 4 4 4 3 3 3 3 4 4 5 6 8 9 8 8 7 8 9 10 10 10 9 9 7 7 5 7
3 3 5 6 5 3 2 2 3 4 4 10 5 8 4 17 9 7 8 9 11 9 11 12 9 5 4 3 2 2 3 2 1 2 1 2 4 5 5 6 9 9 9 9 10 9 10 10 11 12 12 10 10 11 10 11 10 9 9 10 9 8 5 6 6 6 5 6 7 6 4 4 4 4 3 3 3 3 5 5 5 7 8 8 8 8 7 9 9 9 10 8 7 7 6 5 7
9 7 7 5 3 2 1 1 3 3 7 11 8 10 3 9 13 8 9 8 9 8 7 5 4 4 5 4 4 3 3 3 2 2 3 3 2 3 5 7 8 9 8 10 10 10 10 11 12 13 12 10 10 12 12 12 11 10 10 11 11 9 8 7 7 5 7 7 9 6 6 4 4 4 4 4 3 4 4 4 4 5 7 7 7 7 8 8 8 8 8 6 6 7 5 4 4
7 4 5 4 2 2 3 3 2 4 9 2 4 5 8 3 12 5 6 7 10 6 6 5 3 6 4 5 4 4 3 3 4 3 4 5 5 4 5 7 8 10 9 10 10 10 11 11 11 13 13 13 11 11 13 12 10 10 10 10 11 9 9 8 9 10 11 9 8 8 5 4 5 4 5 5 5 5 4 4 5 5 5 5 5 5 7 6 6 6 5 5 5 4 4 5 4
3 6 6 4 3 3 4 4 5 8 9 3 1 2 5 15 21 3 4 2 6 6 6 6 4 5 4 3 4 5 5 4 4 4 4 5 6 7 8 8 9 10 10 12 12 11 11 12 13 14 13 12 11 10 12 12 11 10 10 9 8 7 7 8 9 11 9 9 8 9 8 8 6 5 5 6 7 8 6 6 6 5 5 5 5 5 5 7 6 6 6 5 5 5 4 4 4
9 10 8 6 7 7 8 7 4 4 2 2 2 1 8 15 16 14 19 18 14 10 8 7 7 10 11 8 3 3 5 6 5 4 4 5 6 7 8 9 9 9 11 11 12 11 11 11 13 13 12 12 11 11 11 11 12 10 10 7 7 8 7 8 6 8 8 8 6 10 10 9 8 9 9 9 9 9 7 6 6 6 5 6 5 6 6 6 6 6 6 6 6 5 4 4 4
12 9 10 8 6 5 7 5 8 6 5 2 2 2 6 3 3 5 5 5 4 4 6 5 4 5 7 6 5 8 7 6 6 4 6 7 7 8 8 8 9 9 10 11 10 11 10 10 11 12 11 12 13 14 11 12 10 10 9 9 8 8 6 6 6 5 7 7 7 9 8 8 7 8 7 7 9 9 8 7 7 6 6 6 6 6 5 6 6 6 6 6 5 5 5 5 5
8 7 5 8 11 5 10 2 3 3 0 2 4 7 5 9 8 7 4 4 7 5 7 7 9 9 6 5 7 9 6 4 4 6 8 7 7 8 7 8 9 9 11 10 12 11 11 11 11 12 13 13 14 14 13 11 11 8 9 9 7 9 8 5 4 4 6 7 6 8 8 7 7 8 7 6 7 8 8 7 7 7 7 6 6 6 7 6 6 6 6 6 6 3 6 6 6
8 6 7 8 7 2 3 1 3 2 2 11 5 7 11 11 19 22 19 18 15 10 10 7 7 6 4 6 8 9 3 3 4 5 6 7 7 8 8 8 8 9 9 10 11 11 12 11 11 12 13 12 14 13 13 11 10 10 11 9 7 8 7 9 8 8 8 7 6 6 6 7 7 8 7 6 7 7 7 7 7 7 7 7 7 7 6 6 7 6 6 7 7 5 6 6 6
7 6 8 6 3 5 3 7 2 4 10 8 4 11 14 6 13 4 5 11 13 14 13 11 11 10 8 9 9 6 5 6 6 5 5 6 7 8 7 7 8 9 10 10 11 10 10 10 11 12 12 14 14 13 14 12 11 11 10 10 9 10 8 8 8 8 8 8 7 7 5 6 6 5 5 4 6 7 7 8 7 7 7 7 7 6 6 7 7 6 7 7 6 7 7 5 5
3 1 3 7 5 7 9 3 9 9 9 7 10 14 13 14 19 8 1 7 5 7 7 8 8 9 9 10 10 6 6 6 6 7 6 5 6 7 7 7 7 8 9 9 10 10 10 10 11 11 13 14 13 11 12 10 11 8 8 9 11 11 9 7 8 8 7 8 8 7 7 6 4 5 5 6 6 6 7 8 7 7 7 7 7 7 7 7 6 7 7 7 6 7 7 7 5
1 2 3 2 2 7 8 9 3 4 10 7 8 11 12 13 14 13 17 16 15 13 11 9 9 10 9 7 6 2 4 5 6 7 7 5 5 6 7 7 8 9 9 9 10 10 11 11 11 11 11 12 12 12 12 12 11 9 8 8 9 10 9 9 9 7 9 8 8 8 6 5 5 5 6 6 6 7 8 9 8 8 8 7 8 7 7 7 7 7 7 6 6 7 8 8 7
7 6 9 4 4 3 5 2 7 6 6 8 8 11 11 15 8 12 13 12 10 10 9 6 5 7 7 7 4 1 1 3 3 3 3 3 4 5 6 6 6 7 7 8 10 11 11 10 11 12 13 13 14 12 12 11 9 10 10 11 9 11 10 7 9 9 10 9 8 8 7 6 5 6 7 8 7 9 8 8 10 9 10 9 9 9 7 8 7 8 7 8 8 8 9 7 8
14 14 15 15 10 7 8 9 4 2 5 5 6 12 12 20 4 12 13 10 6 3 4 4 5 5 7 4 1 1 2 3 2 3 3 4 4 5 5 5 5 6 8 10 10 10 12 12 12 12 12 13 13 12 12 11 10 9 11 10 11 9 11 9 10 9 10 9 8 8 8 7 8 7 8 8 8 9 8 9 9 10 10 9 9 9 8 8 8 9 7 7 7 9 9 9 8
Wind_Direction
287 260 279 249 249 249 269 208 243 151 235 99 123 211 93 82 79 152 111 155 154 61 56 113 43 176 313 5 356 355 24 334 27 319 27 87 194 103 104 130 146 150 146 140 137 142 144 147 127 138 133 130 131 130 129 124 125 124 121 122 116 115 112 110 109 105 103 98 93 87 82 77 75 73 74 75 77 80 82 79 80 85 88 87 90 90 95 96 93 86 83 82 78 74 71 72 68
292 302 255 233 239 245 201 127 276 171 185 138 70 50 99 113 211 139 136 83 44 75 84 76 116 62 25 347 327 314 95 45 31 68 84 116 144 106 122 173 155 157 155 146 147 149 144 136 127 145 138 135 136 134 128 127 128 128 125 122 116 115 114 112 108 106 105 99 94 88 81 78 76 76 76 78 80 82 84 81 81 84 86 88 92 95 93 94 92 88 84 80 77 75 75 73 72
307 290 231 223 234 236 303 211 264 48 231 104 95 72 125 158 154 110 71 72 79 93 94 78 69 170 200 269 260 302 77 99 91 87 107 136 154 151 155 152 167 165 156 152 151 143 143 133 133 148 139 137 134 132 134 135 135 135 128 120 119 119 116 112 110 108 104 99 97 88 83 80 79 78 79 80 82 84 83 83 82 81 85 87 88 90 93 91 88 86 83 81 80 79 78 75 76
288 274 264 224 229 206 235 216 293 301 36 55 122 116 139 150 97 87 88 85 88 102 122 133 177 53 269 222 1 287 158 116 77 115 120 173 125 133 153 156 163 172 155 154 147 143 142 126 132 146 142 138 134 131 137 138 137 135 125 126 125 122 118 115 113 109 106 105 100 91 87 83 82 81 81 83 84 86 86 86 85 85 88 91 93 90 87 85 84 85 85 83 82 82 81 84 81
261 235 251 267 287 214 300 353 323 272 42 19 69 129 130 133 114 110 95 97 97 103 168 115 197 114 323 313 333 306 77 89 130 6 122 92 94 122 148 157 172 168 170 167 154 136 117 109 118 152 143 140 139 137 139 142 139 133 127 125 127 125 121 119 117 113 110 109 103 97 91 88 85 84 83 84 87 89 89 85 85 86 88 94 91 92 92 90 87 86 85 83 79 77 77 76 77
256 251 208 255 273 3 250 217 185 79 52 339 56 110 130 112 126 117 114 111 101 108 36 185 334 127 186 196 24 317 51 205 121 108 124 127 128 141 160 162 176 173 167 166 157 140 134 109 101 146 149 149 143 143 144 142 139 132 126 127 130 128 124 123 120 118 115 110 105 98 92 89 86 85 84 85 87 88 88 88 87 88 92 92 96 96 92 89 84 83 83 83 83 81 79 79 78
259 226 185 209 182 236 267 319 55 50 80 341 59 118 128 126 118 127 129 123 139 112 146 258 261 250 229 120 160 67 82 66 161 101 33 123 149 163 165 175 177 179 163 164 159 142 124 96 100 76 156 148 147 142 146 142 141 131 130 131 130 131 131 128 123 119 116 111 108 102 96 91 87 87 86 87 88 89 88 88 87 90 91 91 91 90 91 89 83 83 83 85 85 84 83 81 81
268 272 153 233 156 239 248 47 52 353 88 36 49 93 123 126 137 140 146 184 156 197 173 210 254 272 48 215 244 100 95 54 79 104 109 147 144 165 179 178 181 178 168 164 160 119 110 104 97 85 42 162 147 149 150 148 145 139 135 135 136 136 138 132 127 122 118 116 112 108 102 97 93 91 92 93 94 95 94 91 90 89 91 90 89 91 90 88 91 92 90 89 87 89 86 84 81
226 255 125 262 208 225 232 94 68 65 103 130 129 58 45 131 156 155 154 132 122 170 160 182 210 239 101 160 64 134 115 117 101 86 114 133 158 164 189 192 185 177 170 167 159 132 139 110 100 76 74 37 156 160 156 156 154 148 144 141 142 142 141 138 131 126 125 122 118 112 106 102 99 97 98 98 97 95 94 93 92 90 90 93 94 91 92 93 91 90 90 89 91 88 86 83 77
211 255 189 251 344 206 262 136 209 97 96 107 124 150 148 145 157 209 161 161 148 168 102 79 172 261 65 225 127 176 147 137 126 121 121 145 152 175 168 193 188 183 174 162 170 157 142 119 97 92 58 42 178 174 168 164 160 158 150 149 149 145 142 140 136 133 129 125 122 117 111 108 104 102 101 101 100 98 96 95 95 96 94 93 91 90 90 91 92 91 90 94 94 92 89 81 77
211 195 326 240 211 244 239 123 119 145 140 145 130 130 149 157 168 174 194 146 114 192 113 158 210 229 245 215 70 61 112 135 151 142 141 148 160 180 178 171 297 222 174 176 156 159 149 154 112 118 99 59 354 157 182 175 166 163 158 155 152 145 144 143 142 137 135 129 125 122 116 112 108 104 103 102 103 101 100 99 98 98 97 96 94 91 90 89 88 89 89 94 96 95 84 78 74
230 210 184 241 238 248 101 57 112 115 130 163 150 145 152 161 173 189 183 205 177 204 198 176 51 346 226 228 120 144 138 148 155 133 142 145 168 175 178 181 201 210 178 159 146 157 159 159 165 134 119 102 22 194 173 183 179 166 163 162 156 149 147 147 143 143 137 136 130 127 124 117 111 106 105 105 105 105 104 103 103 102 101 98 96 95 94 91 88 87 88 88 91 87 83 78 74
263 186 206 243 297 235 53 281 127 81 184 187 148 145 149 165 186 193 189 219 186 202 203 188 63 245 246 173 90 130 156 159 133 131 142 161 152 161 208 170 217 195 165 152 138 144 162 169 183 173 151 146 158 156 148 153 174 155 167 161 154 148 147 152 149 145 143 140 135 133 127 118 111 110 108 108 108 107 107 105 105 105 104 101 99 96 93 90 87 86 86 88 88 87 83 79 74
275 212 224 232 46 278 261 21 84 223 198 120 110 138 165 176 197 211 205 203 199 218 52 76 189 317 268 113 151 158 154 143 126 132 145 165 153 165 186 170 191 191 158 164 151 141 151 176 186 188 174 190 183 161 145 158 147 155 161 151 149 158 163 154 149 148 144 137 131 126 125 114 113 108 107 109 108 106 104 104 106 105 103 102 100 99 97 94 91 89 88 88 87 84 81 78 74
271 322 246 291 203 229 180 254 198 218 98 125 130 150 161 175 108 196 224 221 129 63 119 43 326 233 85 230 140 151 141 137 131 135 148 158 154 168 166 168 152 172 185 195 151 148 154 171 192 190 190 192 193 196 184 145 147 148 157 155 154 172 167 155 148 143 130 124 126 124 116 113 108 103 99 98 96 96 100 103 106 106 105 104 103 101 100 97 95 91 89 88 86 83 80 77 73
312 245 231 229 226 227 160 231 199 253 128 126 145 145 168 152 188 205 209 359 60 77 160 186 189 270 349 16 86 91 123 131 131 149 151 155 161 163 169 180 160 166 178 195 191 157 158 162 184 192 199 195 190 207 199 177 145 145 157 162 155 152 134 152 145 127 117 119 122 121 120 120 117 109 109 104 101 102 101 106 107 108 108 107 104 101 99 98 95 93 90 88 84 80 77 74 71
270 274 206 224 228 208 144 217 169 226 98 109 145 155 177 181 166 255 38 278 256 171 200 180 192 184 322 75 107 118 122 122 138 158 161 163 168 172 180 185 184 179 197 187 201 196 173 172 172 176 201 205 203 199 206 188 153 153 148 143 148 138 153 146 161 119 120 124 131 137 143 149 138 129 130 121 115 103 103 108 111 111 110 108 104 103 100 97 96 95 93 91 88 83 76 69 64
245 211 228 216 244 210 149 218 193 35 191 137 168 172 188 173 165 176 152 227 238 214 222 204 202 206 112 117 120 127 138 143 158 167 174 172 176 179 186 191 198 198 196 203 205 206 202 205 184 180 187 197 207 204 200 197 169 191 189 176 168 162 141 142 150 141 136 141 146 154 157 152 150 151 131 132 118 118 110 107 109 112 112 110 110 108 106 102 101 100 100 98 97 98 97 86 76
221 219 233 243 205 66 54 252 92 203 21 144 163 177 196 192 166 154 206 213 210 227 231 217 218 212 156 140 141 147 152 164 171 182 180 183 184 184 186 187 199 204 201 203 199 200 204 205 202 201 179 184 196 194 208 194 182 201 191 192 182 174 155 171 179 150 159 159 169 174 167 172 149 142 145 132 130 113 113 111 107 110 111 110 111 111 111 110 107 105 105 105 109 114 98 95 89
231 266 212 237 61 81 44 0 93 47 1 150 155 168 208 100 189 128 219 240 204 227 233 208 227 223 189 169 163 157 168 170 181 187 193 195 195 192 188 188 196 205 196 196 194 195 201 199 199 208 193 186 186 191 191 191 195 192 197 193 178 179 174 180 200 168 183 176 180 187 184 168 148 141 99 109 112 121 111 110 109 104 105 108 111 108 108 110 113 115 123 136 128 101 101 94 86
112 230 257 44 67 155 90 53 69 61 17 148 153 132 199 152 194 176 214 241 234 239 241 240 216 223 208 169 168 164 171 175 185 197 202 201 204 206 201 194 192 197 196 181 186 191 199 200 195 197 190 199 200 192 200 186 181 205 203 197 175 183 189 185 197 185 196 183 187 176 122 203 151 135 145 144 149 137 135 130 129 130 128 127 127 120 123 130 128 128 130 106 94 93 95 96 92
207 222 36 357 80 198 75 81 39 36 21 84 119 163 204 114 188 225 233 236 238 253 233 222 242 281 148 151 167 169 179 181 188 197 207 206 201 203 208 200 190 193 182 188 186 181 188 191 184 190 193 196 199 208 204 184 167 198 199 206 193 188 192 212 193 190 205 188 191 181 188 181 136 156 163 164 153 148 146 148 151 144 144 141 139 135 145 143 135 125 113 107 96 94 83 76 74
219 133 108 46 14 59 70 118 54 319 53 119 190 130 76 184 230 217 234 239 244 60 29 35 54 64 86 156 156 178 185 190 191 198 203 208 206 204 206 200 191 191 185 191 181 182 183 190 187 193 191 194 200 207 203 198 199 218 208 202 206 204 193 199 212 194 191 197 180 168 181 178 165 172 171 166 162 156 155 159 157 154 153 154 153 153 154 147 132 121 114 106 101 81 78 81 79
290 121 133 82 15 75 60 67 71 75 325 23 26 1 252 218 242 191 238 241 249 93 87 72 65 82 138 175 176 186 191 195 199 201 202 207 207 205 204 201 198 188 184 196 194 186 182 189 189 190 197 202 201 211 211 207 207 209 228 237 208 206 195 200 201 199 199 192 169 177 182 174 175 177 173 170 172 167 166 165 160 158 163 163 162 158 151 135 120 117 110 105 102 90 88 92 92
223 137 140 100 96 91 88 89 118 111 338 358 312 259 249 246 276 4 253 248 243 242 147 151 151 155 158 205 198 201 202 203 206 203 202 210 211 209 206 207 200 195 198 195 195 196 186 190 190 194 201 209 211 207 215 217 213 206 211 228 236 202 208 210 209 205 204 196 185 181 170 177 182 189 173 180 173 176 163 158 147 150 164 165 158 144 143 132 127 120 116 118 111 102 97 95 95
336 108 123 133 111 110 102 115 116 137 100 174 215 245 224 7 13 261 258 255 247 207 171 204 209 225 222 218 216 207 208 207 206 202 201 199 204 204 205 205 204 203 199 193 192 196 190 190 196 196 199 201 213 219 220 222 217 220 211 216 226 230 213 206 209 204 207 197 193 185 175 180 182 184 188 181 180 169 162 147 147 131 103 58 119 133 135 129 129 118 109 111 114 115 107 101 98
120 129 134 134 122 132 164 153 140 145 145 181 241 243 229 127 227 264 236 242 134 183 223 217 223 237 234 226 222 219 217 214 206 201 193 192 195 202 201 200 205 207 197 197 195 196 193 189 195 200 203 206 206 211 222 224 219 223 215 212 204 200 221 199 194 189 195 221 205 190 188 185 186 175 190 189 172 162 158 147 152 141 132 132 125 125 121 127 126 120 121 120 122 120 111 107 104
127 132 128 125 146 133 144 155 140 189 166 200 261 270 283 216 193 246 229 115 177 208 226 221 223 236 238 233 225 221 223 223 213 199 199 192 197 199 201 200 205 203 200 201 200 195 195 196 195 200 204 194 202 211 214 225 225 222 210 196 207 198 190 203 193 184 183 217 193 184 190 187 182 183 177 183 166 162 155 152 155 146 147 137 124 135 123 122 119 109 99 104 110 110 116 113 106
142 188 181 155 164 194 172 187 152 227 151 176 42 279 256 226 232 241 225 140 169 209 224 222 224 229 231 234 227 219 220 217 209 206 209 207 201 199 206 203 198 196 198 197 193 189 193 194 201 202 203 199 201 212 215 217 222 224 217 204 195 203 187 202 201 176 171 186 201 167 185 187 184 179 191 186 164 159 158 152 154 154 149 141 131 125 114 109 114 112 94 88 100 105 105 111 107
167 194 279 167 196 225 174 126 128 219 112 144 185 260 241 223 228 240 151 175 179 239 247 243 241 234 229 222 221 224 221 213 214 214 211 210 207 202 205 201 196 192 189 188 190 190 185 183 189 192 198 203 207 213 217 216 216 214 210 211 198 201 206 210 203 176 169 172 190 196 188 192 188 185 179 178 177 167 154 153 152 152 148 140 135 135 130 119 116 119 121 118 111 111 121 119 113
203 145 256 247 192 185 140 190 145 216 116 172 205 257 266 306 203 179 125 167 216 245 250 251 246 237 227 222 221 226 227 218 222 218 212 207 207 205 203 198 191 189 184 188 192 187 185 181 177 187 190 202 200 211 214 219 218 213 204 214 201 182 217 214 293 215 163 178 181 190 202 187 199 192 175 171 178 171 163 150 152 151 145 139 137 139 138 125 125 132 137 122 120 117 117 111 111
163 180 210 201 235 117 139 148 174 220 139 199 187 259 261 263 238 95 102 169 227 243 252 256 254 248 237 228 225 230 233 222 224 226 214 206 205 203 197 198 189 189 190 186 186 185 191 185 181 191 187 198 196 199 207 214 209 202 202 205 182 180 215 206 203 282 202 190 192 193 194 190 161 144 169 175 166 147 138 145 142 142 147 141 136 142 145 138 132 134 131 130 124 122 121 115 112
203 240 162 187 210 170 157 162 140 39 120 181 211 255 292 193 99 133 140 234 221 243 257 259 257 255 250 242 238 239 239 229 222 221 213 203 203 201 196 196 192 191 191 187 186 186 193 186 184 194 192 193 193 193 201 206 197 193 193 173 206 183 211 204 191 194 113 190 202 195 190 185 172 142 145 138 135 133 149 141 138 146 147 142 142 142 145 145 132 128 118 121 124 130 125 119 113
203 204 248 192 208 201 240 113 174 148 232 213 211 245 249 271 275 187 175 195 208 236 249 257 260 254 250 249 241 238 238 232 227 219 208 199 199 199 196 194 194 190 195 196 191 187 190 187 184 192 193 191 188 188 188 202 191 193 178 179 193 197 203 191 184 187 176 157 171 198 185 179 184 158 139 123 114 137 139 137 144 148 147 147 145 146 139 142 127 132 120 118 126 129 127 128 121
208 185 220 218 226 249 281 199 127 206 181 253 245 239 255 256 266 273 262 202 213 238 249 253 256 260 265 264 256 249 242 233 230 222 203 194 194 195 193 190 190 191 193 196 194 190 188 187 184 186 191 185 180 181 192 202 199 191 189 192 186 172 160 151 165 154 158 103 164 134 147 161 168 168 145 136 132 134 130 131 139 146 145 140 135 139 144 135 133 138 131 129 132 131 128 125 122
13 214 228 269 244 194 223 120 119 240 231 236 238 254 265 258 259 256 252 258 255 255 255 255 252 252 253 253 254 251 246 245 234 219 190 179 187 184 188 186 188 189 193 193 194 191 190 186 183 182 188 184 174 170 187 195 191 188 188 185 172 176 166 158 135 150 148 151 133 151 161 158 147 153 151 147 139 141 141 147 147 150 151 145 140 144 149 145 142 134 135 138 130 115 113 120 124
37 345 294 271 282 280 107 108 85 156 276 256 255 262 268 267 267 269 273 275 269 265 261 253 249 242 239 243 244 246 245 247 211 173 165 176 176 177 178 181 188 189 193 192 193 194 193 189 182 185 182 180 179 175 188 189 190 182 198 196 186 174 172 157 164 149 163 160 147 163 150 140 143 145 157 155 149 147 137 138 145 151 152 154 153 160 159 141 145 144 139 139 135 128 128 137 135
291 287 276 252 203 268 83 109 138 120 267 282 285 282 274 275 270 268 270 267 266 260 258 255 249 241 238 235 242 243 244 242 157 167 174 172 171 173 174 182 186 189 196 193 195 192 192 189 187 183 176 183 188 184 187 196 194 196 196 195 192 176 157 164 167 168 157 140 151 157 161 143 140 147 156 143 155 154 142 142 156 157 150 154 157 147 144 146 145 146 143 133 150 138 143 155 152
212 259 255 274 247 266 106 78 130 153 221 268 283 282 281 281 280 272 263 258 260 261 256 259 261 258 244 239 240 245 244 238 206 207 180 178 174 174 178 187 194 201 195 197 195 191 190 190 191 185 180 183 189 188 192 195 195 198 200 194 198 161 133 148 151 141 129 138 141 154 156 126 152 156 158 151 155 156 143 143 158 156 157 151 146 151 154 158 158 157 158 145 144 139 139 161 169
240 215 233 238 69 343 237 108 91 189 238 297 303 293 282 280 273 264 252 242 249 258 264 264 263 261 253 245 243 245 245 241 234 223 194 179 173 176 181 189 194 196 198 194 194 193 190 193 190 186 182 183 185 189 195 197 193 138 119 168 127 125 143 102 96 115 127 121 155 132 62 135 143 157 162 160 171 160 155 155 157 167 157 160 154 149 161 161 163 165 161 156 147 146 158 171 191
215 239 244 256 262 266 272 7 302 222 236 273 285 277 263 253 263 264 253 227 243 254 257 255 250 244 251 260 260 251 251 247 244 239 214 171 173 184 188 187 186 191 197 195 193 192 192 193 190 187 183 181 185 188 191 189 134 131 117 93 95 85 95 137 134 154 163 159 134 179 170 141 161 160 156 157 185 162 154 156 159 162 157 158 152 156 163 171 171 170 166 160 168 159 160 166 189
221 208 227 256 285 300 324 344 343 291 264 152 286 313 276 255 243 264 271 218 223 223 221 238 238 229 230 241 239 241 243 244 245 240 231 181 180 182 185 185 188 192 197 197 192 195 191 190 189 187 178 183 187 190 195 166 167 156 154 154 167 172 169 176 187 180 170 175 186 163 135 157 154 158 149 165 187 181 159 158 165 161 159 163 167 164 167 167 175 177 175 167 168 173 161 161 173
255 204 272 249 266 319 319 304 318 282 293 102 265 297 283 279 277 271 273 273 274 271 254 257 261 240 222 226 228 229 234 235 229 231 232 205 185 182 185 186 191 192 197 189 191 195 194 189 187 189 185 180 185 193 187 163 165 175 180 185 176 184 175 183 173 152 162 171 160 166 154 150 150 154 156 175 185 190 165 163 172 172 164 164 169 172 175 178 179 180 171 172 173 165 165 170 173
234 42 306 63 213 235 283 305 267 275 319 269 185 234 275 278 252 261 260 263 267 270 262 257 259 249 243 241 235 234 238 243 232 227 223 222 199 186 191 188 189 194 187 185 189 192 193 191 187 187 185 181 183 190 175 181 176 175 182 189 188 189 190 174 173 159 153 149 151 161 153 163 145 159 159 177 172 175 172 163 171 167 166 171 169 179 181 178 166 172 175 171 168 172 174 171 171
48 61 25 75 79 57 102 253 282 300 330 294 171 204 259 261 212 209 232 250 246 249 259 260 253 249 240 251 255 237 229 225 230 225 228 219 216 203 196 187 187 186 185 185 189 187 190 188 187 185 183 180 188 176 175 180 182 177 184 190 194 194 190 166 158 150 148 145 154 152 160 143 150 155 171 177 157 170 165 170 167 171 172 176 178 180 179 171 172 167 168 173 176 170 178 172 171
134 133 86 88 90 84 165 274 275 290 297 271 162 182 258 286 263 188 195 228 244 247 253 253 263 160 164 184 146 131 130 152 210 245 218 211 216 205 196 178 178 183 182 182 183 183 187 186 186 185 190 184 187 181 174 185 188 178 182 193 189 186 159 145 151 148 146 151 167 165 158 152 158 158 162 164 161 181 171 169 183 184 176 175 179 180 166 170 171 168 170 172 168 166 173 187 176
135 149 115 117 108 135 182 283 274 290 252 266 166 180 215 291 288 191 163 200 198 234 238 244 134 136 148 130 126 139 142 152 154 157 148 128 96 155 166 179 180 178 178 183 184 185 188 189 188 192 192 186 185 182 179 187 190 191 193 197 194 182 157 151 147 144 163 168 178 166 166 161 159 158 158 164 174 179 182 167 179 189 178 171 174 164 161 159 158 156 156 146 146 157 159 138 140
163 153 160 157 184 165 218 215 148 236 255 68 108 170 187 233 286 134 176 181 201 214 238 235 191 135 139 144 144 134 137 149 152 165 160 160 150 163 172 183 183 181 180 185 189 186 190 191 190 191 193 195 190 187 184 188 187 194 199 202 198 185 169 175 175 168 177 177 176 171 160 158 162 160 160 159 176 182 180 168 178 177 169 160 163 160 158 157 144 137 131 139 128 112 105 126 123
224 172 177 204 221 155 225 179 217 204 246 125 50 126 240 228 245 178 150 203 244 254 248 262 296 292 303 294 147 155 158 159 169 162 165 172 178 175 183 188 183 187 188 189 187 189 190 194 193 192 194 195 194 192 188 189 190 194 195 196 188 160 169 172 178 181 173 176 170 172 168 177 168 169 177 172 179 176 178 170 167 174 164 160 154 144 135 135 135 137 140 140 132 135 134 134 142
195 195 183 189 227 226 243 220 224 255 126 107 106 175 250 265 279 261 261 250 235 224 230 255 275 280 282 278 253 199 170 181 170 175 184 193 186 186 185 185 186 189 192 190 190 190 191 196 197 195 195 194 201 208 196 191 194 195 196 191 186 189 182 175 174 179 176 182 171 180 182 183 180 184 179 184 171 167 180 173 165 165 158 145 136 128 124 125 136 140 132 130 125 127 123 123 109
200 203 192 203 210 220 237 215 227 224 259 104 231 143 241 232 231 359 324 7 333 271 265 296 307 289 283 297 296 275 246 182 172 187 214 206 193 184 183 186 186 190 190 189 191 193 192 193 194 195 198 204 210 215 205 197 194 192 191 196 195 182 175 176 178 173 171 178 180 179 178 179 180 178 177 173 151 163 165 162 156 145 141 139 133 124 123 128 133 128 129 121 114 115 111 108 106
196 214 229 236 234 232 254 304 305 306 336 212 179 232 271 243 333 279 282 297 280 254 263 252 249 251 254 265 264 259 247 187 180 218 230 219 192 184 184 187 185 186 188 187 191 190 192 194 191 196 200 206 211 211 210 198 197 186 187 190 183 178 182 171 178 169 186 194 187 192 183 183 184 185 178 155 151 160 157 147 141 141 138 139 140 135 139 141 137 128 120 117 107 106 119 117 118
175 162 211 210 31 238 266 136 117 67 303 258 231 259 256 285 279 262 249 235 236 225 216 205 234 228 217 236 247 248 157 170 206 228 221 208 199 192 190 184 183 184 187 190 191 191 193 190 190 195 200 205 212 208 202 196 195 187 192 187 177 184 179 190 191 190 192 190 169 184 183 189 185 190 172 154 152 156 146 139 141 139 140 141 139 140 142 136 136 130 130 127 127 130 124 127 128
113 208 203 64 36 8 222 251 167 215 244 262 213 243 272 278 280 31 203 219 233 244 247 247 255 259 241 241 241 226 158 191 210 237 231 211 199 192 189 190 189 186 187 188 191 191 194 194 192 193 199 202 207 192 194 194 192 194 191 185 188 196 192 189 190 193 192 197 198 187 185 184 178 146 121 130 150 145 137 138 137 138 140 139 139 140 139 141 140 128 128 130 134 134 124 115 118
308 207 42 174 208 217 212 231 239 240 243 261 246 257 258 249 257 254 248 157 196 198 207 214 229 237 246 251 256 253 140 165 190 224 233 204 185 184 188 192 194 192 187 187 188 189 191 196 197 198 202 205 200 190 190 194 195 192 190 184 189 192 188 180 194 191 190 190 184 182 188 194 125 121 129 143 147 142 142 143 139 141 141 141 140 139 142 144 141 130 132 127 134 137 133 127 120
248 325 241 285 312 240 204 200 251 244 254 246 260 257 259 241 248 264 264 263 260 262 255 243 226 229 243 255 265 276 136 176 201 214 224 206 176 175 180 185 188 193 189 187 188 188 194 194 196 200 204 206 198 191 189 192 190 186 179 176 183 190 189 185 186 157 187 186 170 183 181 184 169 144 150 148 152 155 154 150 147 143 145 142 143 143 149 144 137 133 134 133 142 142 133 129 122
192 217 228 185 208 32 350 292 222 224 246 249 273 270 260 261 246 261 269 273 260 258 254 238 231 240 247 253 261 12 288 248 217 195 184 188 178 173 173 176 184 188 192 190 188 190 192 194 197 197 201 205 206 196 193 195 185 188 177 187 179 188 187 173 185 178 176 171 175 180 183 179 146 168 160 165 161 163 160 157 150 151 150 151 149 150 150 145 137 137 134 136 143 143 133 127 125
188 192 208 205 185 195 220 243 200 230 228 246 259 262 284 268 254 260 272 278 285 300 254 236 225 251 250 242 112 121 284 294 265 131 144 169 175 170 167 171 177 188 196 197 190 188 191 196 198 198 202 205 205 196 193 193 190 190 185 185 184 177 193 189 194 183 187 186 180 182 178 167 177 175 170 173 167 167 163 157 155 153 151 151 151 151 149 146 140 134 126 141 144 142 134 130 127